H1 CPF 2 NER 2024 2 3 9 034 01 glonass137 H2 1705501 9137 42939 2024 2 3 0 0 0 2024 2 6 23 45 0 900 1 1 0 0 0 1 H9 10 0 60343 0.00000 0 -6689934.889 -21028341.019 12785255.947 10 0 60343 900.00000 0 -6867140.996 -22426702.206 10012308.239 10 0 60343 1800.00000 0 -7099915.520 -23458074.459 7044728.788 10 0 60343 2700.00000 0 -7335187.909 -24102940.755 3940186.905 10 0 60343 3600.00000 0 -7518138.637 -24354744.503 759032.918 10 0 60343 4500.00000 0 -7594746.191 -24220056.592 -2436879.328 10 0 60343 5400.00000 0 -7514308.872 -23718208.323 -5585400.661 10 0 60343 6300.00000 0 -7231833.590 -22880405.908 -8625301.255 10 0 60343 7200.00000 0 -6710189.391 -21748364.188 -11497467.316 10 0 60343 8100.00000 0 -5921933.428 -20372517.643 -14146055.721 10 0 60343 9000.00000 0 -4850731.027 -18809884.558 -16519583.584 10 0 60343 9900.00000 0 -3492308.810 -17121674.833 -18571931.099 10 0 60343 10800.00000 0 -1854899.660 -15370742.476 -20263238.022 10 0 60343 11700.00000 0 40840.153 -13618990.093 -21560676.533 10 0 60343 12600.00000 0 2162439.104 -11924834.383 -22439085.722 10 0 60343 13500.00000 0 4466719.128 -10340838.675 -22881455.945 10 0 60343 14400.00000 0 6901359.389 -8911611.186 -22879254.184 10 0 60343 15300.00000 0 9406850.508 -7672056.240 -22432584.677 10 0 60343 16200.00000 0 11918758.506 -6646050.641 -21550182.203 10 0 60343 17100.00000 0 14370204.874 -5845599.437 -20249238.480 10 0 60343 18000.00000 0 16694460.108 -5270505.200 -18555065.256 10 0 60343 18900.00000 0 18827543.436 -4908563.373 -16500600.671 10 0 60343 19800.00000 0 20710721.045 -4736274.253 -14125768.355 10 0 60343 20700.00000 0 22292799.304 -4720040.590 -11476701.585 10 0 60343 21600.00000 0 23532117.901 -4817799.339 -8604847.360 10 0 60343 22500.00000 0 24398160.260 -4981018.039 -5565967.641 10 0 60343 23400.00000 0 24872714.453 -5156970.849 -2419057.101 10 0 60343 24300.00000 0 24950536.618 -5291197.568 774801.604 10 0 60343 25200.00000 0 24639489.635 -5330041.286 3953622.747 10 0 60343 26100.00000 0 23960151.779 -5223156.946 7055719.456 10 0 60343 27000.00000 0 22944912.224 -4925884.424 10020899.236 10 0 60343 27900.00000 0 21636591.751 -4401385.402 12791629.818 10 0 60343 28800.00000 0 20086646.733 -3622453.355 15314152.736 10 0 60343 29700.00000 0 18353031.851 -2572919.657 17539523.214 10 0 60343 30600.00000 0 16497810.968 -1248595.837 19424556.507 10 0 60343 31500.00000 0 14584615.996 342288.626 20932662.733 10 0 60343 32400.00000 0 12676059.612 2179172.524 22034554.493 10 0 60343 33300.00000 0 10831209.402 4229770.904 22708814.015 10 0 60343 34200.00000 0 9103228.321 6451180.886 22942309.177 10 0 60343 35100.00000 0 7537279.263 8791440.746 22730450.552 10 0 60343 36000.00000 0 6168780.499 11191478.795 22077284.481 10 0 60343 36900.00000 0 5022084.218 13587372.330 20995420.093 10 0 60343 37800.00000 0 4109632.711 15912823.861 19505791.226 10 0 60343 38700.00000 0 3431627.024 18101752.533 17637257.172 10 0 60343 39600.00000 0 2976221.449 20090893.458 15426049.214 10 0 60343 40500.00000 0 2720235.295 21822297.009 12915072.933 10 0 60343 41400.00000 0 2630351.576 23245623.859 10153079.071 10 0 60343 42300.00000 0 2664751.724 24320139.667 7193718.603 10 0 60343 43200.00000 0 2775116.797 25016325.670 4094500.089 10 0 60343 44100.00000 0 2908910.029 25317037.261 915669.584 10 0 60343 45000.00000 0 3011843.387 25218161.608 -2280964.726 10 0 60343 45900.00000 0 3030422.789 24728746.416 -5433239.786 10 0 60343 46800.00000 0 2914463.195 23870594.334 -8479852.594 10 0 60343 47700.00000 0 2619465.917 22677340.142 -11361558.327 10 0 60343 48600.00000 0 2108756.385 21193049.786 -14022327.612 10 0 60343 49500.00000 0 1355290.795 19470400.525 -16410439.810 10 0 60343 50400.00000 0 343054.237 17568519.118 -18479490.603 10 0 60343 51300.00000 0 -932009.701 15550569.196 -20189294.157 10 0 60343 52200.00000 0 -2461577.960 13481189.288 -21506662.408 10 0 60343 53100.00000 0 -4225054.209 11423888.983 -22406046.654 10 0 60343 54000.00000 0 -6190198.564 9438512.004 -22870029.481 10 0 60343 54900.00000 0 -8314255.225 7578871.884 -22889658.048 10 0 60343 55800.00000 0 -10545531.554 5890658.297 -22464612.843 10 0 60343 56700.00000 0 -12825363.334 4409700.563 -21603209.124 10 0 60343 57600.00000 0 -15090384.864 3160659.614 -20322231.395 10 0 60343 58500.00000 0 -17275009.818 2156201.772 -18646604.331 10 0 60343 59400.00000 0 -19314020.005 1396687.450 -16608906.596 10 0 60343 60300.00000 0 -21145154.597 870386.309 -14248736.889 10 0 60343 61200.00000 0 -22711592.256 554208.489 -11611944.385 10 0 60343 62100.00000 0 -23964222.945 414919.853 -8749738.324 10 0 60343 63000.00000 0 -24863614.854 410788.985 -5717693.861 10 0 60343 63900.00000 0 -25381594.512 493595.538 -2574673.439 10 0 60343 64800.00000 0 -25502374.248 610914.383 618315.382 10 0 60343 65700.00000 0 -25223180.070 708578.430 3799303.405 10 0 60343 66600.00000 0 -24554353.924 733215.493 6906561.431 10 0 60343 67500.00000 0 -23518926.271 634751.517 9879796.630 10 0 60343 68400.00000 0 -22151677.114 368773.970 12661320.363 10 0 60343 69300.00000 0 -20497724.892 -101344.864 15197164.816 10 0 60343 70200.00000 0 -18610702.358 -802654.773 17438126.943 10 0 60343 71100.00000 0 -16550595.582 -1751240.884 19340719.807 10 0 60343 72000.00000 0 -14381336.138 -2951302.440 20868013.231 10 0 60343 72900.00000 0 -12168246.573 -4394736.752 21990347.975 10 0 60343 73800.00000 0 -9975445.123 -6061246.977 22685910.018 10 0 60343 74700.00000 0 -7863317.198 -7918970.509 22941154.208 10 0 60343 75600.00000 0 -5886158.232 -9925603.189 22751069.253 10 0 60343 76500.00000 0 -4090085.271 -12029973.895 22119278.908 10 0 60343 77400.00000 0 -2511303.591 -14174005.230 21057977.176 10 0 60343 78300.00000 0 -1174799.845 -16294979.876 19587698.255 10 0 60343 79200.00000 0 -93515.620 -18328019.182 17736925.059 10 0 60343 80100.00000 0 731964.691 -20208671.346 15541543.106 10 0 60343 81000.00000 0 1313199.210 -21875501.623 13044149.614 10 0 60343 81900.00000 0 1673156.696 -23272576.455 10293230.451 10 0 60343 82800.00000 0 1844998.817 -24351737.404 7342220.480 10 0 60343 83700.00000 0 1870428.523 -25074569.258 4248465.211 10 0 60343 84600.00000 0 1797674.955 -25413979.211 1072104.009 10 0 60343 85500.00000 0 1679200.875 -25355320.214 -2125103.141 10 0 60344 0.00000 0 1569230.554 -24897010.803 -5280981.641 10 0 60344 900.00000 0 1521203.769 -24050624.573 -8334158.560 10 0 60344 1800.00000 0 1585264.960 -22840445.984 -11225260.491 10 0 60344 2700.00000 0 1805894.753 -21302510.261 -13898074.532 10 0 60344 3600.00000 0 2219785.329 -19483168.334 -16300644.960 10 0 60344 4500.00000 0 2854050.419 -17437237.122 -18386285.500 10 0 60344 5400.00000 0 3724846.454 -15225812.985 -20114487.056 10 0 60344 6300.00000 0 4836463.845 -12913840.158 -21451703.373 10 0 60344 7200.00000 0 6180927.413 -10567535.993 -22371999.648 10 0 60344 8100.00000 0 7738123.443 -8251780.488 -22857551.989 10 0 60344 9000.00000 0 9476448.673 -6027578.707 -22898988.620 10 0 60344 9900.00000 0 11353954.625 -3949701.347 -22495566.739 10 0 60344 10800.00000 0 13319939.987 -2064600.918 -21655182.161 10 0 60344 11700.00000 0 15316925.018 -408689.261 -20394211.871 10 0 60344 12600.00000 0 17282926.026 992953.042 -18737192.793 10 0 60344 13500.00000 0 19153935.368 2127383.010 -16716343.062 10 0 60344 14400.00000 0 20866503.856 2994085.196 -14370934.994 10 0 60344 15300.00000 0 22360317.943 3604734.619 -11746531.798 10 0 60344 16200.00000 0 23580664.297 3982444.162 -8894102.686 10 0 60344 17100.00000 0 24480678.825 4160529.416 -5869033.353 10 0 60344 18000.00000 0 25023286.171 4180844.172 -2730051.045 10 0 60344 18900.00000 0 25182748.537 4091757.773 461914.978 10 0 60344 19800.00000 0 24945758.973 3945860.508 3644915.367 10 0 60344 20700.00000 0 24312033.358 3797494.657 6757181.913 10 0 60344 21600.00000 0 23294376.221 3700216.046 9738324.663 10 0 60344 22500.00000 0 21918217.604 3704293.792 12530501.636 10 0 60344 23400.00000 0 20220640.249 3854354.239 15079538.439 10 0 60344 24300.00000 0 18248937.624 4187268.905 17335976.246 10 0 60344 25200.00000 0 16058762.756 4730375.925 19256028.117 10 0 60344 26100.00000 0 13711944.756 5500110.446 20802425.471 10 0 60344 27000.00000 0 11274063.589 6501102.275 21945138.799 10 0 60344 27900.00000 0 8811883.415 7725779.551 22661959.095 10 0 60344 28800.00000 0 6390750.660 9154496.138 22938929.084 10 0 60344 29700.00000 0 4072064.192 10756178.631 22770616.128 10 0 60344 30600.00000 0 1910921.970 12489467.243 22160221.519 10 0 60344 31500.00000 0 -45958.768 14304304.215 21119523.800 10 0 60344 32400.00000 0 -1761962.042 16143904.686 19668656.754 10 0 60344 33300.00000 0 -3211863.498 17947028.770 17835725.699 10 0 60344 34200.00000 0 -4382637.433 19650460.765 15656268.765 10 0 60344 35100.00000 0 -5273747.459 21191592.343 13172572.814 10 0 60344 36000.00000 0 -5896909.272 22511001.841 10432856.545 10 0 60344 36900.00000 0 -6275336.139 23554921.433 7490336.138 10 0 60344 37800.00000 0 -6442499.563 24277488.299 4402191.291 10 0 60344 38700.00000 0 -6440458.106 24642684.645 1228451.736 10 0 60344 39600.00000 0 -6317825.789 24625884.244 -1969173.790 10 0 60344 40500.00000 0 -6127466.895 24214939.714 -5128502.787 10 0 60344 41400.00000 0 -5924015.724 23410764.024 -8188094.321 10 0 60344 42300.00000 0 -5761327.383 22227381.190 -11088449.915 10 0 60344 43200.00000 0 -5689968.559 20691443.582 -13773175.916 10 0 60344 44100.00000 0 -5754855.546 18841235.881 -16190084.066 10 0 60344 45000.00000 0 -5993140.313 16725207.390 -18292208.413 10 0 60344 45900.00000 0 -6432434.782 14400094.240 -20038718.603 10 0 60344 46800.00000 0 -7089448.953 11928710.133 -21395711.903 10 0 60344 47700.00000 0 -7969100.852 9377497.963 -22336868.812 10 0 60344 48600.00000 0 -9064136.263 6813944.429 -22843960.045 10 0 60344 49500.00000 0 -10355274.671 4303965.058 -22907195.604 10 0 60344 50400.00000 0 -11811875.679 1909368.120 -22525409.727 10 0 60344 51300.00000 0 -13393098.356 -314497.810 -21706078.652 10 0 60344 52200.00000 0 -15049505.347 -2320815.756 -20465171.247 10 0 60344 53100.00000 0 -16725044.961 -4073006.615 -18826835.612 10 0 60344 54000.00000 0 -18359328.646 -5546000.155 -16822927.819 10 0 60344 54900.00000 0 -19890108.868 -6727019.232 -14492391.869 10 0 60344 55800.00000 0 -21255853.914 -7615846.021 -11880502.753 10 0 60344 56700.00000 0 -22398311.997 -8224560.716 -9037987.140 10 0 60344 57600.00000 0 -23264957.329 -8576765.139 -6020038.592 10 0 60344 58500.00000 0 -23811215.639 -8706325.271 -2885246.354 10 0 60344 59400.00000 0 -24002375.748 -8655686.838 305541.479 10 0 60344 60300.00000 0 -23815106.909 -8473835.952 3490398.312 10 0 60344 61200.00000 0 -23238518.026 -8213991.709 6607519.847 10 0 60344 62100.00000 0 -22274714.160 -7931128.781 9596421.900 10 0 60344 63000.00000 0 -20938826.655 -7679435.124 12399111.960 10 0 60344 63900.00000 0 -19258515.308 -7509812.502 14961211.737 10 0 60344 64800.00000 0 -17272963.003 -7467525.616 17233009.095 10 0 60344 65700.00000 0 -15031404.307 -7590099.219 19170419.281 10 0 60344 66600.00000 0 -12591248.870 -7905552.137 20735837.151 10 0 60344 67500.00000 0 -10015877.151 -8431042.904 21898864.385 10 0 60344 68400.00000 0 -7372199.430 -9171984.492 22636898.024 10 0 60344 69300.00000 0 -4728078.789 -10121666.017 22935569.299 10 0 60344 70200.00000 0 -2149724.236 -11261398.192 22789024.471 10 0 60344 71100.00000 0 300838.693 -12561177.475 22200042.244 10 0 60344 72000.00000 0 2568115.622 -13980842.247 21179985.266 10 0 60344 72900.00000 0 4605212.637 -15471673.730 19748586.164 10 0 60344 73800.00000 0 6375541.911 -16978375.739 17933571.640 10 0 60344 74700.00000 0 7854093.275 -18441351.176 15770131.134 10 0 60344 75600.00000 0 9028219.400 -19799180.545 13300239.564 10 0 60344 76500.00000 0 9897902.368 -20991198.835 10571846.580 10 0 60344 77400.00000 0 10475491.120 -21960062.576 7637947.526 10 0 60344 78300.00000 0 10784921.493 -22654198.870 4555553.874 10 0 60344 79200.00000 0 10860452.427 -23030032.780 1384583.115 10 0 60344 80100.00000 0 10744972.441 -23053898.508 -1813310.005 10 0 60344 81000.00000 0 10487948.816 -22703552.971 -4975937.643 10 0 60344 81900.00000 0 10143107.180 -21969227.082 -8041794.279 10 0 60344 82800.00000 0 9765940.656 -20854169.582 -10951258.920 10 0 60344 83700.00000 0 9411155.032 -19374659.803 -13647759.923 10 0 60344 84600.00000 0 9130158.997 -17559488.224 -16078879.139 10 0 60344 85500.00000 0 8968706.457 -15448926.225 -18197373.408 10 0 60345 0.00000 0 8964791.279 -13093228.166 -19962093.210 10 0 60345 900.00000 0 9146883.926 -10550727.016 -21338781.574 10 0 60345 1800.00000 0 9532584.726 -7885606.121 -22300735.697 10 0 60345 2700.00000 0 10127750.763 -5165435.715 -22829322.076 10 0 60345 3600.00000 0 10926133.346 -2458579.556 -22914333.255 10 0 60345 4500.00000 0 11909541.392 168422.062 -22554180.863 10 0 60345 5400.00000 0 13048523.980 2653384.556 -21755921.545 10 0 60345 6300.00000 0 14303543.573 4940822.175 -20535115.662 10 0 60345 7200.00000 0 15626590.840 6984005.618 -18915521.753 10 0 60345 8100.00000 0 16963173.530 8746649.801 -16928632.762 10 0 60345 9000.00000 0 18254596.175 10204162.863 -14613062.970 10 0 60345 9900.00000 0 19440435.140 11344405.791 -12013797.396 10 0 60345 10800.00000 0 20461105.273 12167932.455 -9181318.080 10 0 60345 11700.00000 0 21260410.453 12687701.500 -6170624.038 10 0 60345 12600.00000 0 21787970.872 12928273.639 -3040163.837 10 0 60345 13500.00000 0 22001424.979 12924529.340 149298.467 10 0 60345 14400.00000 0 21868313.330 12719962.065 3335862.028 10 0 60345 15300.00000 0 21367564.927 12364619.883 6457689.457 10 0 60345 16200.00000 0 20490523.226 11912783.033 9454205.270 10 0 60345 17100.00000 0 19241468.302 11420475.957 12267269.223 10 0 60345 18000.00000 0 17637612.732 10942919.177 14842301.735 10 0 60345 18900.00000 0 15708570.745 10532028.702 17129339.765 10 0 60345 19800.00000 0 13495322.105 10234068.543 19084002.922 10 0 60345 20700.00000 0 11048713.196 10087555.326 20668351.462 10 0 60345 21600.00000 0 8427556.918 10121503.312 21851619.971 10 0 60345 22500.00000 0 5696409.494 10354083.814 22610813.003 10 0 60345 23400.00000 0 2923115.669 10791755.688 22931151.462 10 0 60345 24300.00000 0 176223.188 11428903.874 22806361.330 10 0 60345 25200.00000 0 -2477627.104 12248001.829 22238799.163 10 0 60345 26100.00000 0 -4976228.183 13220291.833 21239411.708 10 0 60345 27000.00000 0 -7264146.747 14306955.522 19827529.977 10 0 60345 27900.00000 0 -9294779.683 15460726.459 18030501.130 10 0 60345 28800.00000 0 -11032042.208 16627877.868 15883164.545 10 0 60345 29700.00000 0 -12451617.979 17750502.725 13427181.441 10 0 60345 30600.00000 0 -13541719.529 18768990.754 10710230.325 10 0 60345 31500.00000 0 -14303327.773 19624598.238 7785083.351 10 0 60345 32400.00000 0 -14749901.103 20262002.224 4708581.213 10 0 60345 33300.00000 0 -14906566.983 20631730.956 1540526.446 10 0 60345 34200.00000 0 -14808830.770 20692367.283 -1657483.033 10 0 60345 35100.00000 0 -14500857.083 20412431.152 -4823256.949 10 0 60345 36000.00000 0 -14033397.192 19771860.721 -7895228.148 10 0 60345 36900.00000 0 -13461450.999 18763028.596 -10813656.046 10 0 60345 37800.00000 0 -12841763.458 17391249.392 -13521793.850 10 0 60345 38700.00000 0 -12230262.181 15674756.362 -15966996.212 10 0 60345 39600.00000 0 -11679545.405 13644147.418 -18101745.243 10 0 60345 40500.00000 0 -11236527.036 11341323.153 -19884574.768 10 0 60345 41400.00000 0 -10940338.637 8817960.922 -21280874.892 10 0 60345 42300.00000 0 -10820577.108 6133588.398 -22263561.501 10 0 60345 43200.00000 0 -10895971.906 3353336.607 -22813598.176 10 0 60345 44100.00000 0 -11173527.848 545465.680 -22920360.948 10 0 60345 45000.00000 0 -11648179.371 -2221234.201 -22581839.392 10 0 60345 45900.00000 0 -12302970.532 -4880059.239 -21804670.677 10 0 60345 46800.00000 0 -13109753.018 -7368917.897 -20604006.331 10 0 60345 47700.00000 0 -14030372.635 -9632662.158 -19003214.551 10 0 60345 48600.00000 0 -15018294.370 -11625128.348 -17033423.932 10 0 60345 49500.00000 0 -16020597.672 -13310803.833 -14732917.414 10 0 60345 50400.00000 0 -16980258.102 -14666051.445 -12146388.090 10 0 60345 51300.00000 0 -17838619.400 -15679841.923 -9324071.151 10 0 60345 52200.00000 0 -18537951.996 -16353965.174 -6320768.635 10 0 60345 53100.00000 0 -19023990.173 -16702712.844 -3194785.864 10 0 60345 54000.00000 0 -19248340.985 -16752046.829 -6800.155 10 0 60345 54900.00000 0 -19170663.263 -16538289.815 3181316.160 10 0 60345 55800.00000 0 -18760524.669 -16106393.967 6307695.443 10 0 60345 56700.00000 0 -17998858.237 -15507861.480 9311673.784 10 0 60345 57600.00000 0 -16878956.614 -14798405.231 12134966.068 10 0 60345 58500.00000 0 -15406961.608 -14035448.558 14722794.215 10 0 60345 59400.00000 0 -13601827.731 -13275569.723 17024946.925 10 0 60345 60300.00000 0 -11494760.373 -12571998.801 18996750.610 10 0 60345 61200.00000 0 -9128151.108 -11972272.302 20599933.062 10 0 60345 62100.00000 0 -6554053.481 -11516144.114 21803363.579 10 0 60345 63000.00000 0 -3832261.570 -11233840.464 22583655.653 10 0 60345 63900.00000 0 -1028070.103 -11144732.193 22925620.901 10 0 60345 64800.00000 0 1790192.030 -11256480.173 22822565.689 10 0 60345 65700.00000 0 4553753.643 -11564689.966 22276424.724 10 0 60345 66600.00000 0 7196011.959 -12053090.619 21297728.812 10 0 60345 67500.00000 0 9655054.783 -12694230.608 19905406.986 10 0 60345 68400.00000 0 11875990.203 -13450662.291 18126426.184 10 0 60345 69300.00000 0 13812987.597 -14276565.730 15995274.711 10 0 60345 70200.00000 0 15430945.543 -15119744.102 13553298.721 10 0 60345 71100.00000 0 16706717.499 -15923907.078 10847903.844 10 0 60345 72000.00000 0 17629844.434 -16631146.079 7931636.932 10 0 60345 72900.00000 0 18202764.140 -17184496.898 4861165.422 10 0 60345 73800.00000 0 18440488.940 -17530481.065 1696174.104 10 0 60345 74700.00000 0 18369765.895 -17621517.942 -1501798.953 10 0 60345 75600.00000 0 18027755.560 -17418104.721 -4670564.201 10 0 60345 76500.00000 0 17460285.825 -16890671.168 -7748496.052 10 0 60345 77400.00000 0 16719755.393 -16021029.640 -10675737.475 10 0 60345 78300.00000 0 15862776.368 -14803358.076 -13395369.550 10 0 60345 79200.00000 0 14947656.380 -13244673.448 -15854522.563 10 0 60345 80100.00000 0 14031827.355 -11364774.810 -18005406.499 10 0 60345 81000.00000 0 13169330.073 -9195657.512 -19806240.709 10 0 60345 81900.00000 0 12408460.993 -6780422.415 -21222064.682 10 0 60345 82800.00000 0 11789680.672 -4171725.184 -22225414.443 10 0 60345 83700.00000 0 11343871.783 -1429829.873 -22796851.888 10 0 60345 84600.00000 0 11091019.707 1379652.607 -22925337.355 10 0 60345 85500.00000 0 11039370.760 4188247.484 -22608438.758 10 0 60346 0.00000 0 11185102.845 6927217.732 -21852373.878 10 0 60346 900.00000 0 11512521.916 9530178.340 -20671884.894 10 0 60346 1800.00000 0 11994775.209 11935611.756 -19089948.964 10 0 60346 2700.00000 0 12595051.052 14089185.783 -17137329.249 10 0 60346 3600.00000 0 13268214.263 15945774.855 -14851975.923 10 0 60346 4500.00000 0 13962808.073 17471103.123 -12278288.403 10 0 60346 5400.00000 0 14623338.079 18642941.753 -9466252.953 10 0 60346 6300.00000 0 15192741.833 19451811.690 -6470472.267 10 0 60346 7200.00000 0 15614939.829 19901163.647 -3349105.780 10 0 60346 8100.00000 0 15837360.138 20007028.993 -162741.253 10 0 60346 9000.00000 0 15813329.992 19797157.286 3026780.440 10 0 60346 9900.00000 0 15504233.152 19309677.652 6157564.368 10 0 60346 10800.00000 0 14881341.724 18591341.128 9168861.101 10 0 60346 11700.00000 0 13927244.710 17695418.585 12002243.422 10 0 60346 12600.00000 0 12636812.526 16679343.110 14602737.360 10 0 60346 13500.00000 0 11017656.158 15602196.322 16919885.765 10 0 60346 14400.00000 0 9090060.671 14522144.406 18908724.043 10 0 60346 15300.00000 0 6886394.805 13493931.553 20530649.504 10 0 60346 16200.00000 0 4450020.068 12566535.909 21754167.906 10 0 60346 17100.00000 0 1833743.489 11781086.149 22555503.167 10 0 60346 18000.00000 0 -902122.852 11169125.818 22919058.824 10 0 60346 18900.00000 0 -3692016.235 10751298.009 22837722.487 10 0 60346 19800.00000 0 -6467599.290 10536505.371 22313007.494 10 0 60346 20700.00000 0 -9160355.947 10521580.693 21355028.761 10 0 60346 21600.00000 0 -11704200.636 10691481.957 19982312.928 10 0 60346 22500.00000 0 -14037993.240 11020003.920 18221445.821 10 0 60346 23400.00000 0 -16107855.909 11470976.594 16106563.333 10 0 60346 24300.00000 0 -17869195.800 11999900.489 13678694.808 10 0 60346 25200.00000 0 -19288349.780 12555949.952 10984970.920 10 0 60346 26100.00000 0 -20343782.613 13084260.197 8077710.873 10 0 60346 27000.00000 0 -21026788.741 13528401.310 5013406.325 10 0 60346 27900.00000 0 -21341668.461 13832934.320 1851621.672 10 0 60346 28800.00000 0 -21305371.435 13945940.608 -1346167.600 10 0 60346 29700.00000 0 -20946622.972 13821416.790 -4517775.457 10 0 60346 30600.00000 0 -20304570.496 13421432.729 -7601520.691 10 0 60346 31500.00000 0 -19427007.946 12717960.263 -10537432.637 10 0 60346 32400.00000 0 -18368253.815 11694294.204 -13268423.008 10 0 60346 33300.00000 0 -17186773.124 10346004.437 -15741400.370 10 0 60346 34200.00000 0 -15942644.374 8681377.928 -17908305.053 10 0 60346 35100.00000 0 -14694978.862 6721331.029 -19727044.149 10 0 60346 36000.00000 0 -13499401.417 4498794.886 -21162308.461 10 0 60346 36900.00000 0 -12405698.773 2057598.906 -22186255.735 10 0 60346 37800.00000 0 -11455734.306 -549101.713 -22779047.403 10 0 60346 38700.00000 0 -10681716.369 -3260789.445 -22929228.939 10 0 60346 39600.00000 0 -10104892.343 -6011857.663 -22633947.043 10 0 60346 40500.00000 0 -9734722.439 -8734099.691 -21898999.971 10 0 60346 41400.00000 0 -9568567.047 -11359310.844 -20738720.457 10 0 60346 42300.00000 0 -9591899.875 -13821895.998 -19175693.775 10 0 60346 43200.00000 0 -9779037.025 -16061375.086 -17240316.528 10 0 60346 44100.00000 0 -10094350.622 -18024683.151 -14970204.691 10 0 60346 45000.00000 0 -10493915.237 -19668170.096 -12409462.286 10 0 60346 45900.00000 0 -10927517.267 -20959217.700 -9607824.732 10 0 60346 46800.00000 0 -11340942.136 -21877407.453 -6619693.291 10 0 60346 47700.00000 0 -11678442.503 -22415191.296 -3503079.312 10 0 60346 48600.00000 0 -11885283.016 -22578038.238 -318478.700 10 0 60346 49500.00000 0 -11910253.856 -22384051.593 2872301.515 10 0 60346 50400.00000 0 -11708046.654 -21863073.785 6007341.591 10 0 60346 51300.00000 0 -11241392.063 -21055317.045 9025809.127 10 0 60346 52200.00000 0 -10482868.356 -20009578.145 11869137.421 10 0 60346 53100.00000 0 -9416304.170 -18781112.632 14482159.242 10 0 60346 54000.00000 0 -8037715.627 -17429258.123 16814174.166 10 0 60346 54900.00000 0 -6355737.453 -16014906.522 18819929.066 10 0 60346 55800.00000 0 -4391528.932 -14597931.161 20460493.043 10 0 60346 56700.00000 0 -2178157.344 -13234676.479 21704010.333 10 0 60346 57600.00000 0 240516.781 -11975615.070 22526317.011 10 0 60346 58500.00000 0 2811407.548 -10863269.812 22911409.914 10 0 60346 59400.00000 0 5474160.946 -9930487.590 22851758.950 10 0 60346 60300.00000 0 8163421.526 -9199136.489 22348456.784 10 0 60346 61200.00000 0 10811315.603 -8679280.637 21411202.804 10 0 60346 62100.00000 0 13350049.000 -8368867.050 20058121.278 10 0 60346 63000.00000 0 15714512.313 -8253937.431 18315416.608 10 0 60346 63900.00000 0 17844786.068 -8309355.992 16216871.604 10 0 60346 64800.00000 0 19688441.934 -8500022.656 13803197.749 10 0 60346 65700.00000 0 21202544.343 -8782520.535 11121249.311 10 0 60346 66600.00000 0 22355269.009 -9107128.116 8223115.975 10 0 60346 67500.00000 0 23127070.675 -9420110.931 5165111.322 10 0 60346 68400.00000 0 23511351.156 -9666195.455 2006676.681 10 0 60346 69300.00000 0 23514599.688 -9791119.903 -1190778.038 10 0 60346 70200.00000 0 23155999.874 -9744153.143 -4365073.520 10 0 60346 71100.00000 0 22466520.079 -9480474.085 -7454476.242 10 0 60346 72000.00000 0 21487526.055 -8963309.677 -10398905.193 10 0 60346 72900.00000 0 20268974.833 -8165739.914 -13141105.894 10 0 60346 73800.00000 0 18867266.643 -7072092.342 -15627768.168 10 0 60346 74700.00000 0 17342845.965 -5678866.087 -17810565.425 10 0 60346 75600.00000 0 15757653.281 -3995145.374 -19647094.960 10 0 60346 76500.00000 0 14172535.080 -2042484.144 -21101701.036 10 0 60346 77400.00000 0 12644721.111 145734.253 -22146164.950 10 0 60346 78300.00000 0 11225474.710 2525436.318 -22760249.139 10 0 60346 79200.00000 0 9958014.328 5043449.729 -22932085.318 10 0 60346 80100.00000 0 8875792.771 7639481.031 -22658399.681 10 0 60346 81000.00000 0 8001205.323 10248397.922 -21944571.357 10 0 60346 81900.00000 0 7344779.828 12802721.838 -20804523.418 10 0 60346 82800.00000 0 6904881.537 15235227.732 -19260448.816 10 0 60346 83700.00000 0 6667943.872 17481543.583 -17342376.730 10 0 60346 84600.00000 0 6609214.299 19482642.156 -15087587.676 10 0 60346 85500.00000 0 6693982.927 21187121.910 -12539888.656 99